TimeEST,TemperatureF,Dew PointF,Humidity,Sea Level PressureIn,VisibilityMPH,Wind Direction,Wind SpeedMPH,Gust SpeedMPH,PrecipitationIn,Events,Conditions,WindDirDegrees,DateUTC
12:00 AM,28.4,28.4,100,30.16,15.0,West,3.5,-,N/A,,Partly Cloudy,280,2012-11-19 05:00:00
1:00 AM,29,29,100,30.16,5,West,3.5,,,,Mist,280,2012-11-19 06:00:00
1:00 AM,28.4,28.4,100,30.16,15.0,Calm,Calm,-,N/A,,Clear,0,2012-11-19 06:00:00
2:00 AM,28.4,28.4,100,30.16,12.0,WNW,3.5,-,N/A,,Clear,300,2012-11-19 07:00:00
3:00 AM,26.6,26.6,100,30.14,15.0,WNW,2.3,-,N/A,,Clear,300,2012-11-19 08:00:00
4:00 AM,26.6,26.6,100,30.14,15.0,West,3.5,-,N/A,,Clear,270,2012-11-19 09:00:00
5:00 AM,26.6,26.6,100,30.14,15.0,WNW,2.3,-,N/A,,Partly Cloudy,290,2012-11-19 10:00:00
6:00 AM,26.6,26.6,100,30.13,15.0,WSW,3.5,-,N/A,,Scattered Clouds,250,2012-11-19 11:00:00
7:00 AM,28,28,98,30.13,5,WNW,2.3,,,,Mist,300,2012-11-19 12:00:00
7:00 AM,28.4,28.4,100,30.12,10.0,Calm,Calm,-,N/A,,Scattered Clouds,0,2012-11-19 12:00:00
8:00 AM,26.6,26.6,100,30.12,7.0,WSW,3.5,-,N/A,,Scattered Clouds,240,2012-11-19 13:00:00
9:00 AM,26.6,26.6,100,30.12,8.0,West,3.5,-,N/A,,Mostly Cloudy,260,2012-11-19 14:00:00
10:00 AM,30.2,30.2,100,30.11,12.0,Calm,Calm,-,N/A,,Mostly Cloudy,0,2012-11-19 15:00:00
11:00 AM,35.6,33.8,93,30.11,20.0,Calm,Calm,-,N/A,,Mostly Cloudy,0,2012-11-19 16:00:00
12:00 PM,41.0,-9999,N/A,30.07,20.0,Calm,Calm,-,N/A,,Overcast,0,2012-11-19 17:00:00
1:00 PM,47,39,67,30.07,10,ENE,4.6,,,,Overcast,70,2012-11-19 18:00:00
1:00 PM,46.4,39.2,76,30.07,20.0,East,4.6,-,N/A,,Overcast,80,2012-11-19 18:00:00
2:00 PM,48.2,39.2,71,30.06,20.0,NNE,4.6,-,N/A,,Overcast,30,2012-11-19 19:00:00
3:00 PM,50.0,41.0,71,30.04,20.0,NE,4.6,-,N/A,,Mostly Cloudy,50,2012-11-19 20:00:00
4:00 PM,50.0,39.2,66,30.03,20.0,Calm,Calm,-,N/A,,Overcast,0,2012-11-19 21:00:00
5:00 PM,46.4,41.0,81,30.04,20.0,Calm,Calm,-,N/A,,Overcast,0,2012-11-19 22:00:00
6:00 PM,44.6,41.0,87,30.04,15.0,Variable,2.3,-,N/A,,Overcast,0,2012-11-19 23:00:00
7:00 PM,45,41,81,30.05,10,NE,4.6,,,,Overcast,40,2012-11-20 00:00:00
7:00 PM,44.6,41.0,87,30.05,15.0,NE,4.6,-,N/A,,Overcast,40,2012-11-20 00:00:00
8:00 PM,42.8,41.0,93,30.05,15.0,Calm,Calm,-,N/A,,Overcast,0,2012-11-20 01:00:00
8:30 PM,42.8,41.0,93,30.05,15.0,ENE,2.3,-,N/A,Rain,Light Rain,70,2012-11-20 01:30:00
9:00 PM,41.0,41.0,100,30.04,5.0,Calm,Calm,-,N/A,Rain,Light Rain,0,2012-11-20 02:00:00
9:36 PM,42.8,41.0,93,30.04,3.0,North,2.3,-,N/A,,Overcast,10,2012-11-20 02:36:00
10:00 PM,41.0,39.2,93,30.03,4.0,Calm,Calm,-,N/A,,Overcast,0,2012-11-20 03:00:00
11:00 PM,41.0,39.2,93,30.03,10.0,Calm,Calm,-,N/A,,Mostly Cloudy,0,2012-11-20 04:00:00
11:33 PM,39.2,39.2,100,30.03,10.0,Calm,Calm,-,N/A,,Mostly Cloudy,0,2012-11-20 04:33:00
11:48 PM,37.4,37.4,100,30.04,2.0,WNW,3.5,-,N/A,,Mostly Cloudy,290,2012-11-20 04:48:00